COSMOS 1261 DEB, 12892

Orbit data source: Space-Track

COSMOS 1261 DEB, 12892 is space debris originally from a launch on Tue, 31 Mar 1981 UTC launched from the Plesetsk Missile And Space Complex (PKMTR). Debris objects in space refer to the collection of defunct objects orbiting the Earth. Examples of debris include non-operational satellites, rocket bodies, and fragments generated from explosions, collisions, or faulty payload assembly.

Loading next visibility...
Identifier
12892, 1981-031E
Orbit
Molniya
Country
Flag of CISCIS
Related business
Manufacturer
Unknown
Mission
Spacecraft
Bus & Motor
Unknown
Mass
Unknown
Launch date (UTC)
1981-03-31 (45 years ago)
Launch vehicle
Unknown
Launch site
Plesetsk Missile And Space Complex (PKMTR)
Object type
Payload
Rocket body
Debris
Shape & HBR
Unknown shape, 1.1 m
Radar Cross Section
Large (>1 m²)

Expand to show TLE details & history
Last TLE update: 22 hours ago

TLE from 22 hours ago
0 COSMOS 1261 DEB
1 12892U 81031E   25303.53877031  .00001001  00000-0  16311-2 0  9998
2 12892  62.1470 123.2441 7453314  43.1354 355.5368  2.00170577254801
Epoch: 2025-10-30T12:55Z
TLE epoch observation values (Epoch: 2025-10-30T12:55:49.754Z)
Latitude
0.00016°
Longitude
-109.88207°
Altitude
1,274.702 km
Speed
9.445 km/s
True Right ascension
08h 12m 41s
True Declination
0° 00' 01"
Sunlit
Object was in daylight at epoch
Visualization orbit readout
Latitude
Unknown
Longitude
Unknown
Altitude
Unknown
Speed
Unknown
Apparent Right ascension
Unknown
Apparent Declination
Unknown
Sunlit
N/A
Visualization observer readout
Local Sidereal Time
07:01:11
Azimuth
Unknown
Elevation
Unknown
Doppler factor
Unknown
Orbital elements
Apogee altitude
40,037.477 km
Perigee altitude
394.559 km
Semi-major axis
26,594.155 km
Eccentricity
0.74533
Inclination
62.147°
RAAN
123.2441°
Arg. of periapsis
43.1354°
True anomaly
317.67972°
Mean anomaly
355.5368°
Eccentric anomaly
343.17866°
Mean motion
0.50045 °/min
Orbital period
719.35 mins
BSTAR
0.0016311
Loading maneuver chart data...
Computing Atmospheric mass density...
Loading historical data...
Loading historical data...
Loading historical data...
Loading historical data...
Loading historical data...
Loading historical data...
Loading historical data...

Documentation

Showing up to 5 results
|